Location: Unspecified
(44.4377°N, 88.0525°W)
Time: 20:53:32
(UTC-05:00)

Cosmos 1674 - Visible Passes

Search period start: 30 May 2016 00:00
Search period end: 09 June 2016 00:00
Orbit: 501 x 526 km, 82.5° (Epoch: 30 May)

Date Brightness Start Highest point End Pass type
(mag) Time Alt. Az. Time Alt. Az. Time Alt. Az.
30 May 3.1 01:10:04 56° NE 01:10:04 56° NE 01:13:19 10° NNE visible
31 May 3.4 00:54:23 45° ENE 00:54:23 45° ENE 00:57:31 10° NNE visible
31 May 5.1 02:29:21 12° WNW 02:29:52 12° WNW 02:31:26 10° NW visible
01 Jun 3.7 00:38:42 37° ENE 00:38:42 37° ENE 00:41:42 10° NNE visible
01 Jun 4.9 02:13:40 15° WNW 02:14:03 15° WNW 02:16:14 10° NW visible
02 Jun 4.0 00:23:01 30° ENE 00:23:01 30° ENE 00:25:51 10° NNE visible
02 Jun 4.7 01:57:58 18° WNW 01:58:14 18° WNW 02:00:52 10° NNW visible
03 Jun 4.3 00:07:18 25° ENE 00:07:18 25° ENE 00:09:56 10° NNE visible
03 Jun 4.4 01:42:15 21° WNW 01:42:25 21° WNW 01:45:23 10° NNW visible
03 Jun 4.5 23:51:34 20° ENE 23:51:34 20° ENE 23:53:59 10° NE visible
04 Jun 4.2 01:26:32 26° WNW 01:26:37 26° WNW 01:29:51 10° NNW visible
04 Jun 4.7 23:35:50 17° E 23:35:50 17° E 23:37:57 10° NE visible
05 Jun 3.9 01:10:47 32° WNW 01:10:50 32° WNW 01:14:16 10° N visible
05 Jun 4.9 23:20:05 14° E 23:20:05 14° E 23:21:48 10° NE visible
06 Jun 3.6 00:55:02 39° WNW 00:55:03 39° WNW 00:58:38 10° N visible
06 Jun 5.1 23:04:19 11° E 23:04:19 11° E 23:05:23 10° ENE visible
07 Jun 3.2 00:39:15 49° W 00:39:17 49° WNW 00:42:58 10° N visible
08 Jun 2.8 00:23:29 63° W 00:23:31 63° W 00:27:16 10° N visible
